Location: Faicchio
(41.2833°N, 14.4833°E)
Time: 06:42:10
(UTC+00:00)

Cosmos 2278 Rocket - Pass Details

Date: 15 June 2025
Orbit: 838 x 846 km, 71.0° (Epoch: 16 July)

Event Time Altitude Azimuth Distance (km) Brightness Sun altitude
Exits shadow 01:53:13 15° 254° (WSW) 2,140 3.8 -14.3°
Maximum altitude 01:56:56 28° 305° (NW) 1,543 3.5 -13.8°
Drops below altitude 10° 02:01:44 10° 3° (N) 2,469 5.4 -13.2°
Sets 02:04:34 0° 15° (NNE) 3,409 6.6 -12.9°
